Location: A O Calhoun Middle School
(33.2198°N, 97.1397°W)
Time: 16:16:08
(UTC+00:00)

Nadezhda 4 Rocket - Pass Details

Date: 02 July 2022
Orbit: 950 x 991 km, 82.9° (Epoch: 16 August)

Event Time Altitude Azimuth Distance (km) Brightness Sun altitude
Rises 10:28:21 0° 133° (SE) 3,653 7.1 -10.6°
Reaches altitude 10° 10:32:34 10° 105° (ESE) 2,702 6.9 -9.8°
Maximum altitude 10:34:58 12° 82° (E) 2,521 7.2 -9.4°
Drops below altitude 10° 10:37:21 10° 59° (ENE) 2,696 8.0 -9.0°
Sets 10:41:31 0° 32° (NNE) 3,639 8.4 -8.3°
